This demonstration page uses our WeatherBlox Daily Observations layout. Learn more.

41.55636, -103.73856

Hourly Observations for May 3, 2017

Temp ( °F °C ) Dew Point ( °F °C ) Humidity (%) Winds ( mph kmh ) Pressure ( in mb ) Visibility ( mi km ) Precip ( " mm )
12:53 am 00:53 Partly Cloudy 41 5 39 3.9 93 93 NW 5 7 30.08 1019 10 16.0934 0 0
1:53 am 01:53 Cloudy 45 7.2 42 5.6 90 90 WNW 8 13 30.07 1018 10 16.0934 0 0
2:53 am 02:53 Cloudy 45 7.2 38 3.3 77 77 NW 14 22 30.08 1019 10 16.0934 0 0
3:53 am 03:53 Cloudy 44 6.7 38 3.3 79 79 WNW 12 19 30.09 1019 10 16.0934 0 0
4:53 am 04:53 Cloudy 43 6.1 36 2.2 76 76 WNW 13 20 30.11 1020 10 16.0934 0 0
5:53 am 05:53 Cloudy 42 5.6 37 2.8 82 82 WNW 9 15 30.13 1020 10 16.0934 0 0
6:53 am 06:53 Cloudy 43 6.1 37 2.8 80 80 WNW 13 20 30.17 1022 10 16.0934 0 0
7:53 am 07:53 Mostly Cloudy 44 6.7 34 1.1 68 68 NW 18 30 30.2 1023 10 16.0934 0 0
8:53 am 08:53 Mostly Cloudy 46 7.8 32 0 58 58 NW 23 37 30.21 1023 10 16.0934 0 0
9:53 am 09:53 Cloudy 48 8.9 31 -0.6 52 52 NW 20 31 30.22 1023 10 16.0934 0 0
10:53 am 10:53 Cloudy 50 10 33 0.6 52 52 NNW 15 24 30.23 1024 10 16.0934 0 0
11:53 am 11:53 Cloudy 51 10.6 33 0.6 50 50 NNW 21 33 30.23 1024 10 16.0934 0 0
12:53 pm 12:53 Cloudy 51 10.6 33 0.6 50 50 NNW 17 28 30.23 1024 10 16.0934 0 0
1:53 pm 13:53 Cloudy 53 11.7 33 0.6 47 47 NNW 15 24 30.21 1023 10 16.0934 0 0
2:53 pm 14:53 Cloudy 58 14.4 31 -0.6 36 36 NNW 15 24 30.18 1022 10 16.0934 0 0
3:53 pm 15:53 Mostly Cloudy 58 14.4 30 -1.1 35 35 NNW 14 22 30.18 1022 10 16.0934 0 0
4:53 pm 16:53 Cloudy 58 14.4 30 -1.1 35 35 NNW 10 17 30.17 1022 10 16.0934 0 0
5:53 pm 17:53 Mostly Sunny 56 13.3 27 -2.8 33 33 N 14 22 30.19 1022 10 16.0934 0 0
6:53 pm 18:53 Sunny 56 13.3 28 -2.2 34 34 NNE 14 22 30.18 1022 10 16.0934 0 0
7:53 pm 19:53 Sunny 50 10 29 -1.7 44 44 N 6 9 30.2 1023 10 16.0934 0 0
8:53 pm 20:53 Clear 44 6.7 30 -1.1 58 58 NNE 7 11 30.22 1024 10 16.0934 0 0
9:53 pm 21:53 Clear 42 5.6 30 -1.1 62 62 SSW 3 6 30.24 1024 10 16.0934 0 0
10:53 pm 22:53 Clear 42 5.6 30 -1.1 62 62 Calm 30.24 1024 10 16.0934 0 0
11:53 pm 23:53 Clear 37 2.8 29 -1.7 73 73 Calm 30.25 1025 10 16.0934 0 0

Powered by AerisWeather